Wind_Speed
2 2 2 3 3 4 5 6 7 9 11 12 13 11 9 8 9 8 6 7 9 8 5 10 17 12 13 16 8 9 10 17 11 6 6 10 1 5 4 2 7 4 13 20 23
1 1 2 2 3 3 4 5 6 8 10 13 13 13 10 10 11 9 8 7 6 10 10 16 12 7 10 5 6 8 9 4 11 4 6 5 4 4 2 3 5 5 13 14 15
0 0 1 2 3 3 4 5 6 7 8 11 13 14 12 11 12 11 9 10 9 10 9 10 12 11 6 14 12 7 3 5 8 5 8 6 2 1 5 3 2 4 5 11 13
0 0 1 1 2 3 3 4 5 6 7 9 12 13 14 13 10 13 12 14 15 13 10 9 11 10 10 7 10 9 1 2 13 10 11 7 7 3 4 4 5 2 5 10 11
2 1 0 2 2 3 3 4 5 6 7 8 12 13 14 14 11 13 14 19 19 16 12 12 14 11 12 8 11 10 12 7 15 13 9 4 4 5 7 5 5 4 9 11 13
3 1 1 2 3 4 4 5 5 6 7 8 10 13 14 13 13 14 16 21 20 20 14 12 11 7 11 1 3 11 15 15 13 15 10 3 5 5 5 5 7 11 12 12 10
4 2 1 2 3 4 5 6 6 6 6 7 9 12 14 14 14 15 17 20 20 18 14 9 9 9 3 2 6 14 18 14 15 19 14 7 3 5 8 9 12 15 14 12 9
5 3 0 2 3 5 5 5 7 7 7 7 8 12 15 14 13 16 17 18 21 16 9 8 5 5 2 5 6 10 11 17 13 12 11 6 5 0 4 4 6 7 10 7 5
7 5 2 2 3 4 6 6 6 7 7 7 6 9 9 14 11 17 18 17 17 16 13 12 8 7 9 10 6 10 19 14 16 12 11 9 8 4 3 1 2 2 4 3 3
8 6 3 2 3 5 5 5 6 7 9 9 9 9 11 9 15 18 20 19 17 16 14 15 13 12 11 11 5 6 17 19 18 8 13 13 13 12 9 8 6 4 2 5 4
8 7 4 3 4 5 6 5 4 5 9 12 12 10 10 8 13 19 20 20 18 17 15 14 16 15 3 8 12 13 9 6 20 20 15 14 19 21 15 14 14 9 1 4 3
6 5 3 1 3 4 5 6 4 4 7 10 11 11 8 11 12 20 21 22 20 19 17 16 22 12 9 10 18 18 17 9 5 13 17 19 15 20 21 18 16 12 8 4 2
7 6 3 0 3 5 6 6 4 2 0 6 12 10 9 7 7 9 19 21 20 20 21 23 10 11 7 9 8 11 18 18 10 8 14 17 21 18 19 18 22 21 18 14 6
8 6 6 2 1 3 3 5 5 4 2 4 8 11 9 7 4 8 14 15 19 17 18 20 19 10 6 7 11 11 5 11 14 17 16 12 6 14 19 20 23 21 21 19 15
10 9 7 5 3 2 2 5 3 1 2 6 6 4 6 7 4 11 12 14 12 16 19 14 11 12 10 3 10 13 6 6 6 13 17 12 9 11 17 27 26 19 19 19 20
13 9 9 8 4 3 4 4 2 2 2 4 6 3 10 14 8 11 11 9 7 14 19 21 18 14 13 8 13 11 9 9 9 12 7 20 16 14 15 22 26 24 23 23 18
16 12 12 11 8 6 5 4 3 2 5 1 2 9 5 14 14 12 15 14 10 12 21 21 23 21 17 15 12 10 11 3 1 2 8 6 7 16 19 17 17 16 16 18 21
19 15 14 14 11 9 6 8 4 4 4 1 6 9 11 14 14 12 17 16 13 11 13 11 11 24 21 22 18 14 16 10 5 3 8 9 7 16 19 19 14 11 12 12 15
16 15 15 13 12 12 10 10 3 7 1 4 3 9 12 10 9 16 16 15 12 16 12 9 13 10 14 15 14 19 20 18 19 7 5 9 15 17 10 9 13 15 21 19 14
10 11 11 11 11 14 15 13 10 8 6 2 1 5 2 3 12 15 13 7 17 25 22 16 16 9 12 16 16 18 22 15 11 3 4 9 13 14 10 11 13 18 23 23 18
6 8 8 10 10 10 12 10 12 12 12 9 7 7 10 8 6 11 8 10 12 16 16 34 26 28 15 17 18 18 18 18 14 11 7 1 5 6 16 10 21 22 24 24 21
4 9 10 9 7 7 8 8 11 11 9 7 7 6 9 9 11 14 12 12 12 9 8 12 17 30 32 31 18 17 17 26 25 12 13 15 30 13 11 18 22 22 24 24 20
6 9 12 10 7 7 8 8 7 8 6 10 7 8 7 6 6 9 12 12 15 15 8 9 6 10 24 31 28 26 20 21 33 27 23 15 30 28 28 26 22 21 27 26 22
7 10 12 12 13 12 10 11 10 8 8 9 8 10 13 12 9 6 11 11 12 14 16 13 16 18 18 21 22 23 24 25 24 34 33 32 32 29 31 30 21 19 28 28 25
6 11 12 10 19 18 17 16 17 18 14 17 15 14 14 15 17 15 12 15 15 18 19 16 15 19 21 22 24 32 37 29 28 25 35 34 30 30 27 25 20 19 31 31 31
3 5 9 16 16 19 20 21 22 23 24 23 22 20 20 19 18 18 21 20 19 19 16 16 12 18 24 20 23 24 25 31 26 22 25 19 20 25 29 19 19 25 37 37 35
6 6 8 10 12 14 17 19 19 22 20 24 29 27 20 18 19 18 20 20 19 20 20 14 13 15 14 17 21 19 21 24 27 22 21 19 17 19 16 26 24 25 41 39 30
Wind_Direction
49 75 114 134 140 141 135 139 157 162 163 170 172 177 170 146 131 124 128 148 173 145 115 68 135 161 128 144 135 128 148 154 158 156 162 160 48 138 51 37 105 106 155 153 156
19 64 97 125 147 164 157 152 156 163 168 168 172 177 173 153 141 141 134 155 164 125 107 107 104 96 111 114 78 102 116 357 163 201 132 147 263 32 62 75 115 141 153 151 140
6 255 117 130 140 163 168 168 165 163 167 167 170 173 172 159 148 147 144 156 146 131 118 97 59 82 96 102 71 99 62 42 216 208 168 100 192 32 25 66 49 34 146 139 128
334 174 190 172 162 158 159 173 172 170 163 165 168 170 169 161 153 155 152 158 149 139 113 78 62 78 80 61 75 33 79 322 165 194 189 72 67 88 317 61 72 43 149 139 138
1 354 262 218 195 176 166 176 174 179 171 165 167 168 168 166 162 158 154 157 147 121 100 71 99 129 71 85 58 65 80 90 159 183 176 116 83 17 19 55 102 140 137 136 132
351 339 241 217 208 195 186 189 185 182 179 175 167 171 171 165 163 164 158 159 156 144 123 111 105 90 171 182 119 103 106 135 156 188 171 95 137 352 24 34 120 134 141 139 129
7 344 263 214 203 192 188 196 194 190 184 181 177 174 177 171 169 171 164 165 172 163 143 138 134 125 125 121 114 133 130 153 151 180 176 202 146 34 33 119 129 127 123 125 121
23 18 152 186 191 187 183 189 194 194 190 191 184 183 187 183 180 179 171 170 181 174 166 186 166 151 104 71 124 162 170 161 175 182 199 208 249 325 24 117 179 153 128 125 110
29 36 69 156 168 175 183 182 184 185 186 185 188 183 176 179 194 188 180 175 181 189 203 213 187 200 156 134 197 188 185 181 192 200 190 227 249 262 213 184 173 66 154 146 169
30 41 87 135 159 168 175 179 189 187 178 176 175 160 176 184 201 194 190 185 183 183 192 192 193 214 209 204 220 290 241 210 210 226 220 235 258 283 230 221 274 319 78 199 243
20 26 42 120 154 176 170 165 189 201 200 186 169 170 184 182 187 196 197 195 192 190 191 187 208 219 282 300 293 278 233 204 228 232 243 241 258 267 271 228 233 257 3 62 62
12 20 40 108 183 187 190 206 267 217 205 211 186 188 190 170 168 191 196 202 201 201 201 207 222 230 263 284 302 263 242 248 269 223 232 241 262 247 250 239 236 250 262 349 82
2 357 12 127 194 205 224 262 313 33 220 200 203 204 206 178 166 188 203 202 205 205 210 220 216 208 238 300 245 228 228 237 276 276 246 242 249 234 237 237 233 244 254 266 247
335 342 337 326 230 240 259 282 325 351 85 132 172 193 206 183 143 200 198 206 208 203 212 231 220 234 272 305 228 235 241 240 275 270 253 253 267 246 245 239 233 244 250 246 247
313 313 313 316 284 263 304 252 289 8 57 127 153 161 200 180 153 184 168 191 200 203 203 203 209 214 234 222 258 243 274 284 306 291 256 256 236 260 247 244 240 233 229 237 243
297 294 289 288 287 250 246 236 201 314 80 159 173 195 189 160 157 160 175 173 186 208 219 224 232 239 224 238 288 274 250 273 277 248 265 260 248 267 263 279 261 250 240 231 223
288 285 277 272 266 257 248 217 212 221 132 142 283 236 213 190 181 185 203 204 207 224 233 242 244 244 236 252 247 249 247 241 252 168 228 174 222 293 295 271 263 255 221 223 234
280 277 267 261 256 250 232 202 215 134 123 346 265 234 225 197 205 215 202 212 219 236 247 251 270 237 229 231 247 254 254 220 206 218 270 256 249 286 292 272 236 211 204 223 237
274 269 261 254 242 236 227 204 172 179 330 29 74 208 218 237 232 224 225 245 240 229 219 223 248 236 223 225 242 252 255 257 244 261 285 264 281 283 286 248 189 201 208 214 229
270 259 250 236 224 222 219 216 199 188 239 257 139 179 152 316 254 240 224 272 268 254 246 261 257 268 229 244 252 255 263 240 232 182 248 259 257 250 255 233 241 213 219 215 227
251 232 206 201 205 214 223 220 214 231 254 259 230 261 275 306 273 239 235 261 266 253 260 245 249 260 266 254 253 260 252 228 243 218 174 239 246 234 247 281 273 257 226 213 227
244 202 212 210 211 216 220 231 243 246 237 239 254 272 287 280 275 265 271 235 257 259 267 250 262 258 263 268 259 245 263 245 229 212 227 244 254 250 263 270 297 251 242 223 224
231 214 213 218 214 215 232 240 276 276 266 248 240 268 279 258 255 249 242 244 268 278 262 250 272 281 266 257 262 243 243 248 247 248 244 231 260 265 270 276 293 243 233 221 218
207 208 222 233 250 253 250 261 253 263 272 252 276 268 262 249 252 241 242 256 263 257 282 280 275 266 266 272 256 249 252 246 244 244 252 252 270 280 273 272 272 249 224 226 225
203 215 230 235 246 258 260 264 275 277 269 274 268 277 288 288 272 283 280 274 272 273 273 278 279 266 270 277 269 252 255 248 240 260 245 257 269 278 284 267 264 255 223 223 224
293 247 238 242 248 250 255 263 268 269 276 275 281 280 280 289 286 286 290 289 289 278 282 277 278 281 286 282 270 257 250 251 241 240 239 255 273 276 283 263 257 251 223 222 223
327 300 279 267 266 262 264 264 266 270 264 264 270 275 276 274 272 276 281 280 279 283 292 295 288 299 294 275 272 265 252 242 246 247 254 261 263 263 285 264 255 246 224 228 239
Height
3148 3148 3148 3148 3149 3149 3149 3150 3151 3152 3154 3156 3158 3160 3162 3164 3165 3166 3165 3165 3166 3170 3170 3171 3171 3170 3170 3169 3169 3169 3170 3169 3169 3170 3170 3171 3171 3171 3170 3169 3170 3170 3174 3175 3175
3149 3149 3149 3149 3149 3149 3150 3151 3152 3152 3154 3156 3158 3160 3162 3164 3166 3167 3168 3166 3168 3171 3172 3176 3175 3173 3172 3173 3172 3173 3174 3174 3174 3173 3171 3171 3173 3171 3171 3170 3170 3170 3174 3175 3176
3150 3149 3149 3149 3149 3150 3150 3151 3152 3153 3154 3156 3158 3160 3162 3164 3167 3168 3168 3168 3171 3172 3174 3175 3174 3174 3174 3174 3174 3174 3175 3175 3175 3176 3175 3174 3173 3172 3173 3172 3172 3171 3172 3175 3177
3150 3149 3149 3149 3149 3150 3150 3151 3152 3153 3154 3156 3158 3160 3162 3164 3168 3168 3170 3170 3172 3174 3174 3174 3174 3175 3175 3176 3177 3177 3176 3176 3176 3177 3177 3175 3173 3173 3174 3174 3174 3174 3175 3177 3179
3150 3149 3148 3148 3149 3150 3150 3151 3152 3153 3154 3156 3157 3160 3162 3165 3166 3168 3171 3172 3174 3173 3175 3175 3175 3178 3177 3179 3179 3179 3177 3174 3177 3179 3179 3178 3177 3177 3176 3175 3176 3176 3178 3180 3182
3150 3149 3148 3148 3149 3149 3150 3151 3152 3153 3153 3155 3157 3159 3162 3165 3166 3168 3171 3174 3175 3177 3177 3178 3178 3178 3179 3180 3182 3180 3178 3178 3180 3180 3181 3180 3179 3180 3178 3176 3177 3179 3180 3181 3183
3149 3148 3148 3148 3148 3149 3150 3151 3152 3153 3154 3155 3157 3159 3162 3165 3166 3168 3171 3173 3175 3176 3177 3179 3179 3179 3180 3181 3182 3181 3180 3181 3181 3181 3181 3182 3180 3181 3179 3178 3179 3181 3183 3184 3185
3149 3148 3148 3148 3148 3149 3149 3151 3151 3152 3153 3155 3157 3159 3161 3163 3165 3168 3170 3173 3175 3177 3179 3179 3179 3180 3180 3181 3181 3182 3183 3182 3183 3182 3182 3181 3180 3180 3181 3179 3181 3182 3182 3183 3185
3149 3148 3147 3148 3148 3148 3149 3150 3151 3152 3153 3155 3156 3158 3161 3163 3165 3167 3169 3171 3174 3177 3178 3179 3180 3180 3182 3181 3181 3181 3180 3181 3182 3182 3182 3182 3180 3181 3181 3181 3181 3181 3181 3183 3185
3150 3149 3148 3148 3148 3148 3149 3150 3151 3152 3152 3154 3155 3160 3160 3161 3162 3165 3167 3170 3173 3175 3177 3179 3179 3178 3179 3180 3181 3179 3177 3178 3178 3181 3180 3180 3180 3180 3181 3181 3182 3183 3182 3182 3183
3150 3149 3148 3148 3148 3149 3150 3151 3153 3154 3152 3153 3154 3156 3157 3159 3160 3163 3166 3168 3171 3174 3176 3177 3178 3176 3178 3179 3179 3177 3176 3175 3176 3179 3179 3179 3179 3179 3180 3180 3180 3181 3182 3181 3182
3152 3150 3149 3149 3149 3149 3150 3149 3149 3151 3151 3152 3154 3155 3156 3157 3158 3160 3164 3167 3170 3172 3174 3177 3174 3178 3179 3178 3175 3173 3175 3176 3176 3176 3178 3177 3178 3176 3177 3177 3179 3180 3181 3182 3183
3152 3150 3149 3149 3148 3149 3148 3148 3149 3149 3150 3151 3153 3155 3156 3158 3158 3159 3163 3165 3167 3170 3172 3172 3175 3177 3177 3175 3174 3172 3174 3175 3177 3176 3176 3176 3176 3175 3174 3175 3177 3178 3179 3181 3182
3151 3150 3149 3148 3150 3148 3149 3149 3149 3150 3150 3152 3151 3154 3156 3156 3157 3158 3161 3165 3165 3169 3170 3170 3174 3174 3174 3173 3173 3173 3173 3176 3175 3175 3174 3175 3174 3172 3172 3172 3172 3175 3175 3177 3179
3149 3149 3148 3148 3149 3149 3151 3149 3149 3151 3151 3153 3152 3152 3154 3157 3158 3158 3160 3162 3164 3167 3169 3168 3169 3170 3172 3173 3172 3173 3174 3173 3174 3173 3173 3173 3174 3169 3168 3167 3167 3171 3172 3174 3176
3146 3147 3147 3147 3147 3149 3149 3150 3150 3152 3151 3152 3152 3152 3153 3154 3156 3158 3159 3161 3163 3164 3165 3164 3165 3167 3168 3169 3171 3171 3172 3172 3172 3172 3172 3169 3171 3165 3165 3162 3162 3165 3168 3170 3174
3143 3144 3144 3145 3146 3146 3147 3149 3151 3149 3152 3153 3151 3151 3152 3154 3155 3156 3158 3159 3160 3163 3163 3163 3162 3163 3165 3166 3167 3169 3170 3171 3172 3172 3169 3166 3167 3160 3160 3159 3159 3161 3165 3166 3170
3139 3140 3140 3141 3143 3145 3146 3149 3149 3149 3148 3150 3149 3149 3151 3153 3154 3155 3156 3157 3159 3159 3161 3161 3159 3160 3162 3163 3164 3164 3166 3166 3171 3171 3164 3164 3160 3159 3156 3154 3155 3159 3164 3166 3167
3135 3135 3135 3137 3140 3142 3145 3146 3146 3147 3148 3147 3147 3148 3149 3151 3153 3153 3154 3153 3154 3156 3158 3156 3155 3156 3157 3160 3162 3162 3162 3164 3164 3164 3165 3160 3157 3156 3153 3152 3154 3156 3161 3163 3165
3131 3131 3132 3133 3135 3138 3141 3142 3144 3145 3145 3146 3146 3147 3147 3148 3150 3150 3152 3151 3150 3151 3155 3155 3154 3153 3155 3156 3158 3158 3160 3159 3160 3163 3165 3155 3153 3152 3152 3153 3154 3155 3156 3161 3164
3129 3129 3129 3130 3132 3135 3137 3140 3142 3141 3142 3145 3144 3144 3145 3145 3146 3147 3148 3150 3149 3149 3150 3152 3153 3150 3151 3151 3153 3154 3152 3154 3156 3155 3155 3157 3149 3149 3151 3153 3153 3153 3155 3159 3161
3127 3128 3128 3129 3133 3132 3134 3135 3136 3138 3140 3140 3141 3142 3141 3143 3143 3144 3145 3146 3144 3144 3146 3147 3146 3143 3144 3147 3148 3148 3148 3149 3150 3150 3149 3148 3142 3147 3147 3149 3148 3147 3151 3155 3159
3125 3126 3126 3128 3129 3130 3131 3133 3134 3135 3137 3136 3138 3138 3138 3139 3141 3140 3142 3141 3141 3142 3142 3143 3141 3140 3137 3141 3141 3140 3143 3144 3145 3146 3144 3145 3136 3143 3144 3143 3144 3143 3146 3151 3155
3125 3125 3126 3126 3127 3128 3129 3130 3132 3132 3132 3132 3134 3133 3134 3136 3135 3136 3136 3137 3136 3136 3138 3139 3139 3138 3136 3135 3138 3135 3135 3137 3139 3138 3139 3137 3135 3137 3138 3138 3139 3139 3143 3147 3150
3124 3124 3124 3124 3125 3125 3127 3127 3127 3128 3130 3128 3130 3130 3130 3130 3130 3130 3130 3130 3131 3131 3133 3135 3134 3132 3131 3131 3129 3128 3129 3130 3130 3132 3132 3133 3132 3131 3131 3133 3132 3134 3137 3140 3143
3122 3123 3123 3122 3122 3123 3122 3123 3124 3124 3125 3125 3124 3125 3125 3125 3126 3125 3124 3125 3125 3127 3128 3128 3129 3126 3125 3125 3124 3120 3121 3123 3124 3125 3126 3128 3127 3127 3125 3126 3127 3128 3130 3135 3140
3120 3119 3119 3118 3118 3119 3119 3119 3119 3118 3121 3121 3118 3119 3120 3119 3119 3119 3119 3120 3121 3121 3122 3124 3123 3122 3119 3121 3118 3117 3117 3117 3118 3120 3119 3119 3120 3119 3119 3120 3122 3124 3126 3129 3134